STARLINK-32671, 62209

Orbit data source: Space-Track

STARLINK-32671, 62209 is a payload satellite owned by SpaceX/Seattle (US) in LEO that was launched on Wed, 04 Dec 2024 UTC via an FALCON 9 launch vehicle from the Air Force Eastern Test Range (AFETR). Payload-class satellites include a variety of spacecraft equipped with specific instruments for various scientific and technological missions. These include communications satellites like Starlink; space stations such as the ISS; scientific satellites like the Hubble; Earth observation satellites from companies like Planet Labs, Umbra, and HawkEye 360; GPS; miniature CubeSats for education and research; and military/defense satellites.

Loading next visibility...
Identifier
62209, 2024-229T
Orbit
LEO
Country
Flag of USUS
Related business
Manufacturer
SpaceX/Seattle
Mission
Operational Commercial Communications
Bus & Motor
STARLINK V2M, Unknown motor
Mass
730 kg wet, ~700 kg dry
Launch date (UTC)
2024-12-04 (2 years ago)
Launch vehicle
FALCON 9
Launch site
Air Force Eastern Test Range (AFETR)
Object type
Payload
Rocket body
Debris
Shape & HBR
Box + 2 Pan, 17.7 m
Radar Cross Section
33.884 m², Large (>1 m²)

Expand to show TLE details & history
Last TLE update: 19 hours ago

TLE from 19 hours ago
0 STARLINK-32671
1 62209U 24229T   26171.06723783  .00008710  00000-0  32550-3 0  9995
2 62209  43.0051  52.9686 0002424 276.1223  83.9353 15.27596800 86216
Epoch: 2026-06-20T01:36Z
TLE epoch observation values (Epoch: 2026-06-20T01:36:49.348Z)
Latitude
0.00002°
Longitude
120.47582°
Altitude
482.599 km
Speed
7.626 km/s
True Right ascension
03h 31m 52s
True Declination
0° 00' 00"
Sunlit
Object was in daylight at epoch
Visualization orbit readout
Latitude
Unknown
Longitude
Unknown
Altitude
Unknown
Speed
Unknown
Apparent Right ascension
Unknown
Apparent Declination
Unknown
Sunlit
N/A
Visualization observer readout
Local Sidereal Time
07:15:19
Azimuth
Unknown
Elevation
Unknown
Doppler factor
Unknown
Orbital elements
Apogee altitude
486.607 km
Perigee altitude
483.28 km
Semi-major axis
6,863.08 km
Eccentricity
0.00024
Inclination
43.0051°
RAAN
52.9686°
Arg. of periapsis
276.1223°
True anomaly
83.96292°
Mean anomaly
83.9353°
Eccentric anomaly
83.94911°
Mean motion
3.81737 °/min
Orbital period
94.31 mins
BSTAR
0.0003255
Loading maneuver chart data...
Computing Atmospheric mass density...
Loading historical data...
Loading historical data...
Loading historical data...
Loading historical data...
Loading historical data...
Loading historical data...
Loading historical data...

Documentation

Showing up to 5 results
|